map of LEE home
Great Circle Mapper logo
LEE - Airport
Location
City:  Leesburg, Florida, United States
Name:Leesburg International Airport
ICAO / IATA:KLEE / LEE
FAA:LEE

Details
Type:Airport (Airfield)
Use:Public/Civil
Latitude:2849'22"N (28.822889)
Longitude:8148'30"W (-81.808416)
Datum:WGS 1984
Elevation:75 ft (23 m)
Runways:2
Longest:6300 × 100 ft (1920 × 30.5 m), paved

Time
Time Zone:UTC-5 (DST-4)
Local Time:

Weather
METAR:KLEE 230853Z AUTO 21004KT 10SM CLR 24/23 A3006 RMK AO2 SLP177 T02440228 56005
TAF:KLEE 230520Z 2306/2406 VRB02KT P6SM SCT250
FM231400 21003KT P6SM SCT020 SCT250
FM232000 25006KT P6SM VCTS SCT045CB SCT080 BKN250
FM240000 VRB03KT P6SM SCT100 BKN250
FM240300 VRB02KT P6SM SCT250

Related Locations
Nearby:
Farthest:USL: 11495 mi / 18499 km
Useless Loop, WA, AU

Find:

   beyond  
but within

Other Information
Maps:
NOTAMs:
Links:
Sources:

  
flag of United States
flag of Florida
  

Airport Diagram

Airport diagram for LEE

Airport diagram PDF

Sectional Chart

Flight Planning
at skyvector.com

Satellite Image

Google Maps Satellite View

 

Copyright © 2004-2014 Karl L. Swartz. All rights reserved.
The Great Circle Mapper name and logo are trademarks of the Great Circle Mapper.
All other trademarks mentioned herein belong to their respective owners.
Please see credits for attibutions and further copyright information.

  Follow gcmap on Facebook Follow gcmap on Twitter

hCard Microformat

Geo Microformat